Temp_Advection
nan nan nan nan nan nan nan nan nan nan nan nan nan nan nan nan nan nan nan nan nan nan nan nan nan nan nan nan nan nan nan nan nan nan nan nan nan nan nan nan nan nan nan nan
nan 0 0 0 0 -0 -0 0 -0 -0 -0 0 0 -0 -0 0 0 0 -0 -0 -0 -0 -0 -0 -0 0 0 0 0 0 0 1 0 0 0 0 0 0 0 0 0 0 0 nan
nan 0 -0 -0 -0 -0 -0 -0 0 -0 -1 -1 0 -0 0 0 1 0 -0 -0 0 0 0 0 0 0 0 0 0 0 0 0 1 0 0 1 1 0 0 0 0 0 0 nan
nan -0 -0 -0 -0 -0 -0 0 0 0 -0 -0 -0 -0 -0 0 0 1 1 0 -0 -0 -0 -0 -0 0 0 0 0 0 0 0 1 1 0 0 0 1 0 0 0 1 0 nan
nan -0 -0 -0 -0 0 -0 -0 0 0 -0 -0 -0 0 -0 -0 -0 0 1 0 -0 -0 -0 -0 -0 -0 -0 -0 0 0 -0 -0 0 1 1 1 0 0 1 1 0 0 0 nan
nan -0 -0 0 -0 -0 0 -0 -1 -0 -0 -0 -0 -0 -0 -0 -0 -0 0 0 -0 -0 -0 -0 -0 -0 0 0 -0 -0 -0 -0 -0 -0 0 0 1 1 1 1 1 1 1 nan
nan 0 0 -0 -0 -0 -1 -0 -0 -0 -0 -0 -0 -0 -0 -0 -0 -1 0 0 -0 -0 -0 -0 0 0 0 -0 0 -0 -0 -0 -0 -0 0 0 0 1 1 1 1 1 1 nan
nan -0 0 -0 -0 0 -0 -0 -1 0 -0 -1 -1 -0 -0 0 1 0 -0 -0 -0 -0 -0 -0 0 0 0 0 -0 -0 -0 -0 -1 -1 -0 0 0 0 0 1 2 2 2 nan
nan -0 -0 0 -0 -0 0 0 -0 -0 -0 0 -1 -1 -1 0 -0 -1 -1 -0 -0 -0 -0 -0 -0 0 -0 0 0 0 -0 -0 -1 -1 -1 -1 -0 -0 1 2 2 2 1 nan
nan -0 -1 -0 -0 0 0 0 -1 0 0 -0 -0 -0 -0 -0 -1 -1 -0 0 -0 -1 -0 -1 -1 -1 -1 -1 -0 -0 -0 -0 -1 -1 -1 -1 0 0 1 2 1 1 1 nan
nan -0 -1 -0 0 -0 -0 -0 0 0 0 0 -0 -1 -0 -0 0 0 -0 -1 -0 -0 -1 -1 -1 -0 -0 -1 -1 -1 -1 -1 -1 -1 -1 -1 0 1 1 1 1 1 1 nan
nan 0 -0 -1 -1 -0 -0 0 0 -0 0 0 -0 -1 -1 -0 -1 0 -1 -1 -1 -1 -1 -1 -0 -0 -0 -1 -1 -1 -1 -1 -1 -1 -1 -0 0 1 1 1 1 1 0 nan
nan 0 0 -1 -0 -0 -0 -1 -0 1 0 -0 -0 -1 -1 -0 0 -1 -1 -1 -1 -1 -1 -1 -1 -1 -1 -0 -1 -1 -1 -0 -1 -0 -0 1 0 0 1 1 0 0 0 nan
nan 0 -0 -0 -0 -0 -0 -1 0 2 -0 -1 -1 -1 -1 -0 -0 -1 -1 -1 -1 -1 -1 -1 -1 -1 -1 -1 -0 -0 -1 -1 -1 -0 0 1 0 0 0 0 0 -0 -0 nan
nan 0 -0 -0 -0 -0 0 -0 0 0 1 0 -1 -1 -0 -0 -0 -1 -1 -1 -1 -1 -1 -1 -1 -1 -1 -1 -0 -0 -0 -1 -1 0 1 1 0 0 0 0 0 0 0 nan
nan 0 0 -0 -1 -0 -0 -0 -1 0 -0 -0 -0 -1 -0 -1 -1 -1 -1 -1 -1 -1 -0 -0 -0 -0 -0 -0 -0 0 0 -0 -1 -1 1 1 0 0 0 0 0 -0 0 nan
nan 0 0 -1 -0 -0 -0 -1 -0 -0 0 1 0 -0 -1 -2 -1 -1 0 -0 -0 0 -0 -0 -0 -0 -0 0 0 0 -0 -0 0 0 -0 -1 1 1 -0 -0 -0 0 0 nan
nan -0 0 -0 -0 -0 -1 -0 1 0 -0 0 -0 -0 -0 -0 -1 -1 -0 0 0 0 0 0 0 0 0 0 0 0 0 -0 0 0 -0 -0 -0 0 -0 0 0 0 0 nan
nan -0 -0 -0 -0 -0 -1 -0 0 0 -0 -0 -0 -1 -0 0 -1 -0 -0 0 0 0 0 0 0 0 0 0 -0 -0 -0 0 -0 0 -0 0 -0 0 0 0 0 0 -0 nan
nan -0 0 -0 -0 -0 -0 -0 0 0 1 -0 -0 -0 -1 0 -0 -0 -1 0 0 0 0 0 -0 -0 0 -0 -0 -0 -0 -0 -0 0 0 -0 -0 -0 0 0 -0 0 0 nan
nan 0 0 -0 -1 -0 -1 -1 0 -0 -0 1 0 0 1 -0 -0 -0 -0 -0 0 0 0 0 -0 -0 -0 0 -0 -0 -0 -0 -0 -0 -0 -0 -0 -0 -0 -0 0 0 -0 nan
nan -0 -0 -0 -0 -1 -0 0 -0 -0 -0 0 1 0 0 -0 -0 -0 -0 -0 -0 -0 -0 -0 -0 -0 -0 -0 -0 -0 -0 -0 -0 -0 -0 -0 -0 -0 -0 -0 -0 -0 -0 nan
nan -1 -0 -0 -1 -1 -1 0 1 1 1 1 0 0 -0 -0 -1 -0 -0 -0 -0 -0 -0 -0 -0 -0 -0 -0 -0 0 -0 -0 0 -0 -0 -0 -0 -0 -0 -0 -0 -0 -0 nan
nan 1 1 -0 -1 -0 -0 -0 -0 -1 0 1 0 -0 -0 -1 -0 -0 -0 -0 -0 -0 -0 -0 -0 -0 0 -0 -0 0 0 0 -0 -0 -0 -0 -0 -0 -0 -0 -0 -0 -0 nan
nan 0 0 -1 -1 -1 -1 -0 0 0 -1 -0 0 0 0 -0 0 -0 -0 -0 -0 -0 -0 -0 -0 -0 -0 0 0 0 -0 -0 -0 -0 -0 -0 -0 -0 -0 -0 -0 -0 -0 nan
nan nan nan nan nan nan nan nan nan nan nan nan nan nan nan nan nan nan nan nan nan nan nan nan nan nan nan nan nan nan nan nan nan nan nan nan nan nan nan nan nan nan nan nan
Wind_Speed
4 6 3 4 4 3 6 7 5 5 10 10 8 10 11 2 19 20 18 16 12 9 10 12 7 12 11 13 14 16 17 19 21 20 21 22 23 24 20 22 24 20 19 17
7 4 3 5 9 7 7 6 6 4 11 8 10 15 8 9 10 16 16 14 11 8 5 5 5 2 6 10 13 14 15 18 19 20 22 22 22 21 21 19 24 23 24 23
3 2 6 6 6 8 5 5 6 7 10 11 4 9 7 4 17 15 11 7 8 8 4 2 3 6 9 12 13 14 13 16 19 22 23 25 21 22 24 22 24 27 29 27
2 2 6 7 3 6 5 7 9 11 7 3 4 4 5 6 7 8 13 14 15 10 9 6 3 3 6 10 10 11 13 17 18 22 26 28 30 30 29 28 27 28 29 28
4 2 4 5 4 4 7 5 12 14 9 2 7 3 5 6 4 6 12 15 12 8 5 4 3 5 5 7 8 11 14 21 25 25 25 29 31 32 33 27 23 24 23 20
5 4 4 1 8 5 7 7 11 5 3 3 6 5 5 3 4 5 10 13 12 7 4 2 3 7 12 12 12 14 17 21 24 27 29 30 33 35 34 35 31 31 22 20
7 4 3 3 5 7 12 6 4 6 4 4 12 6 8 9 6 10 10 9 4 4 6 5 9 7 6 6 7 11 20 25 28 33 33 35 37 37 39 38 38 36 30 25
4 6 6 7 3 4 5 3 4 2 1 5 9 3 5 9 21 11 2 7 15 16 13 9 8 4 6 4 11 19 21 26 30 32 38 33 30 35 41 40 39 37 33 26
6 4 8 3 1 3 6 4 2 2 2 3 4 7 9 7 11 15 23 11 8 6 9 9 6 7 5 14 19 21 28 32 34 34 36 38 37 35 31 31 28 21 17 14
4 5 5 6 5 5 4 0 5 3 2 3 4 6 6 10 14 10 3 7 7 16 10 11 12 18 17 19 24 29 29 33 34 28 33 36 34 24 19 19 16 14 15 14
6 3 8 6 1 4 2 4 2 2 1 3 3 5 5 13 9 12 23 18 12 8 12 15 21 15 14 19 24 31 35 36 25 30 31 32 31 23 18 15 13 13 18 13
3 2 3 9 15 9 6 7 6 3 5 4 3 8 13 9 13 33 15 16 17 20 20 21 16 18 25 32 39 39 42 27 27 27 30 28 23 18 13 12 13 13 11 13
2 3 3 8 6 7 6 15 12 6 0 7 4 9 7 21 21 8 19 20 22 25 21 24 26 29 37 36 38 37 30 25 29 28 28 20 14 12 12 11 10 13 16 21
4 2 5 5 6 5 10 19 21 11 2 8 9 17 14 12 7 15 18 21 23 17 16 20 27 37 38 36 38 29 27 30 29 24 22 16 9 6 11 13 12 15 14 16
6 5 6 8 7 10 14 19 20 15 17 12 23 18 12 8 6 12 18 23 21 15 19 30 34 35 37 36 27 26 29 36 28 20 13 9 11 12 13 13 15 13 15 21
2 6 2 6 11 10 8 20 21 19 14 10 14 19 7 13 22 22 22 24 20 22 30 36 36 35 33 28 25 31 36 30 22 15 16 13 12 15 18 17 14 13 20 24
5 3 2 15 4 5 7 13 4 6 14 13 8 4 19 18 24 22 24 18 19 27 32 34 32 34 27 22 29 35 36 31 23 20 18 22 24 19 11 7 9 21 25 29
4 3 2 4 3 4 8 14 21 16 9 7 8 14 19 20 23 27 29 17 29 37 32 31 31 28 24 32 33 37 25 15 15 11 7 7 4 4 4 14 20 24 27 29
7 5 1 2 3 8 9 9 3 11 17 4 8 20 25 25 29 17 13 22 29 27 26 28 25 24 35 30 31 14 11 10 11 10 2 3 4 12 15 19 22 24 28 30
7 6 3 1 4 7 8 3 11 12 11 8 21 11 21 20 10 11 24 31 28 26 24 19 25 31 27 23 10 10 14 6 3 5 5 7 14 19 19 20 23 25 26 25
3 3 2 2 5 7 7 9 6 4 9 19 9 15 20 9 14 24 29 24 26 18 16 24 28 23 16 8 6 8 7 5 6 9 15 20 18 19 20 23 24 23 24 23
4 2 4 3 4 8 2 4 3 8 16 23 17 16 27 27 20 27 24 24 12 18 24 27 24 12 9 8 5 1 6 10 17 19 19 19 20 21 21 20 21 21 20 21
3 7 4 9 6 9 25 25 31 36 36 31 25 24 15 24 23 23 25 16 19 23 25 24 9 10 9 7 7 9 13 14 14 19 20 19 19 19 19 22 20 19 20 26
3 15 8 7 10 24 28 42 39 35 29 29 19 22 16 19 19 20 16 21 27 30 22 9 7 7 7 8 9 12 13 15 18 19 19 19 18 19 19 16 17 19 23 26
7 5 8 13 24 33 31 28 33 32 23 22 21 9 13 17 17 17 20 27 29 22 11 8 6 8 7 10 12 13 16 18 19 20 20 19 17 16 16 18 18 20 22 19
14 15 7 16 30 25 35 27 31 18 16 13 13 14 10 16 20 20 27 24 18 12 14 9 9 7 10 11 14 16 17 18 20 21 19 17 15 16 23 21 20 16 18 20
Wind_Direction
293 58 84 356 293 258 347 315 319 320 344 357 306 280 274 327 75 82 89 90 83 61 31 36 184 209 233 250 267 286 285 288 284 279 273 274 263 270 267 250 263 258 255 260
9 94 22 316 313 42 358 327 345 324 335 323 304 299 231 126 107 105 110 103 97 83 56 45 65 297 291 299 305 307 306 295 289 285 286 282 283 275 270 266 255 250 253 260
1 64 8 342 10 32 351 33 347 314 318 306 13 328 107 82 116 113 119 132 154 160 176 166 277 285 288 288 294 303 305 311 284 278 279 279 266 259 259 258 246 248 256 257
240 87 34 339 83 31 332 347 329 305 333 297 74 277 260 146 157 150 167 150 138 125 122 93 68 312 285 305 295 298 311 320 311 278 279 273 276 272 263 263 260 264 265 269
278 54 13 25 349 340 248 302 283 279 255 292 315 82 293 136 179 186 166 141 127 114 89 64 8 339 356 345 320 307 316 324 320 311 298 277 272 277 276 263 259 250 261 261
242 123 81 8 307 300 307 340 309 326 128 53 338 47 296 324 157 135 112 124 119 118 40 65 22 353 325 335 352 346 323 316 314 307 298 287 277 271 265 259 249 252 252 229
326 115 112 23 347 351 8 14 355 10 12 219 7 346 243 317 111 114 105 97 71 29 12 359 346 325 320 329 323 332 329 327 323 315 303 290 280 275 265 261 256 245 243 235
358 340 19 352 78 334 310 53 118 301 319 287 314 258 290 24 81 82 98 74 62 14 352 351 320 305 301 314 329 336 330 323 317 318 304 297 294 288 276 265 250 240 235 230
4 303 341 85 37 94 321 36 228 135 10 58 270 307 338 100 17 11 79 47 15 345 319 332 313 302 315 327 328 325 322 318 322 315 300 300 300 306 278 242 233 228 217 216
323 312 317 337 314 249 173 301 24 2 345 288 287 303 229 338 340 343 319 246 32 8 41 36 31 354 339 323 318 313 314 314 321 305 302 304 306 297 254 232 221 212 228 241
37 58 301 351 91 341 38 349 17 12 293 218 289 266 305 317 309 337 331 66 65 53 49 25 359 358 347 336 328 325 325 330 322 311 304 300 299 290 263 247 234 237 267 272
350 158 291 278 277 267 63 0 348 132 274 231 214 264 271 277 316 306 352 56 48 24 9 10 7 346 339 337 329 326 327 325 317 313 302 294 288 274 263 249 240 240 261 298
16 342 347 340 7 7 15 332 328 315 194 234 243 272 330 298 288 6 65 37 19 5 358 345 337 336 332 329 329 324 329 312 321 311 295 283 276 277 261 235 247 271 288 315
124 205 166 207 243 299 320 310 305 298 232 277 246 288 301 295 319 57 36 17 358 352 336 328 332 334 332 325 327 325 320 315 325 301 286 285 276 237 216 240 268 291 315 310
154 216 226 257 278 291 290 290 286 292 287 288 292 289 298 335 62 35 17 2 358 355 349 344 336 333 325 325 329 315 322 321 320 291 261 223 207 210 228 264 284 304 309 305
285 259 215 272 278 276 293 281 286 286 277 273 297 302 300 0 16 7 2 355 352 344 335 331 327 326 325 326 311 312 318 319 320 280 253 236 240 270 283 293 291 295 293 297
243 190 162 278 330 11 310 273 266 266 308 291 281 304 13 353 346 345 341 341 336 330 321 323 323 324 324 307 308 317 318 316 305 275 272 281 283 299 335 290 269 294 295 296
239 130 131 275 27 229 240 315 303 293 278 327 22 -0 353 351 339 326 330 321 320 323 319 316 323 321 311 313 320 322 323 321 299 309 355 360 2 301 242 278 288 292 296 299
178 125 216 269 212 276 288 264 302 318 309 358 355 338 327 327 315 320 318 318 317 311 310 318 315 310 320 320 326 336 13 11 5 355 54 126 240 271 284 297 299 299 301 305
77 89 129 284 271 292 228 316 346 321 281 350 354 5 318 304 306 312 328 321 322 314 319 311 311 318 312 329 330 333 335 336 39 310 326 325 322 310 308 303 304 306 308 307
350 349 206 236 263 266 257 273 316 44 291 306 279 298 286 280 291 309 316 318 322 316 310 318 322 322 327 307 319 340 339 356 354 353 330 319 318 314 310 309 310 312 312 320
187 184 223 223 237 269 326 329 51 278 308 313 311 320 312 302 308 314 324 326 317 312 317 322 323 329 302 312 341 260 348 344 327 318 325 324 320 319 317 318 318 321 326 315
271 200 211 195 223 262 307 305 308 307 302 305 307 319 328 328 325 321 332 332 325 322 324 326 331 308 335 341 291 301 317 309 314 323 324 323 323 324 326 324 329 335 322 318
243 271 264 317 267 284 304 302 298 299 303 313 325 329 344 314 320 329 330 333 326 320 326 339 334 341 334 314 300 296 311 316 322 325 327 328 328 325 323 333 340 324 322 325
203 235 260 262 281 287 284 290 301 312 313 314 311 326 326 311 312 315 330 330 318 325 344 337 337 338 297 293 289 304 317 328 332 329 330 329 324 328 336 336 327 323 326 339
211 249 244 266 273 279 282 305 320 318 339 325 334 333 326 319 313 318 330 319 315 328 311 314 3 326 306 299 313 319 328 334 334 333 335 331 332 342 339 329 331 345 344 340
Height
1522 1532 1539 1531 1528 1526 1530 1531 1531 1522 1515 1517 1515 1513 1505 1502 1501 1502 1507 1510 1512 1514 1515 1514 1516 1518 1519 1520 1521 1522 1522 1521 1520 1519 1518 1517 1516 1516 1515 1513 1512 1510 1510 1511
1529 1537 1528 1526 1524 1526 1529 1531 1533 1521 1517 1518 1513 1506 1496 1497 1500 1501 1504 1507 1510 1513 1515 1517 1518 1519 1520 1520 1520 1520 1520 1518 1517 1516 1514 1513 1512 1510 1509 1509 1508 1507 1506 1506
1535 1531 1526 1527 1529 1531 1533 1534 1535 1534 1522 1511 1510 1511 1501 1500 1500 1502 1505 1509 1511 1511 1513 1514 1517 1518 1518 1518 1518 1517 1516 1514 1513 1511 1510 1508 1506 1506 1505 1504 1503 1502 1501 1501
1530 1527 1529 1530 1531 1533 1539 1526 1526 1528 1534 1538 1514 1542 1508 1504 1504 1503 1505 1508 1510 1512 1512 1514 1513 1514 1514 1513 1513 1513 1512 1511 1509 1507 1505 1504 1503 1500 1499 1499 1499 1498 1496 1497
1536 1531 1532 1534 1534 1531 1534 1524 1525 1522 1528 1527 1519 1531 1515 1503 1507 1507 1506 1508 1510 1512 1513 1512 1513 1512 1512 1511 1510 1509 1508 1507 1507 1505 1502 1499 1497 1496 1494 1493 1494 1493 1492 1491
1530 1528 1531 1534 1531 1529 1526 1526 1519 1514 1523 1551 1531 1531 1528 1509 1503 1505 1508 1510 1510 1510 1511 1511 1511 1510 1510 1509 1508 1507 1506 1505 1503 1500 1497 1493 1489 1487 1486 1486 1485 1486 1484 1484
1533 1533 1532 1533 1535 1529 1532 1538 1564 1562 1564 1562 1526 1533 1522 1506 1501 1506 1510 1509 1507 1509 1509 1508 1508 1509 1509 1507 1506 1505 1503 1501 1499 1495 1492 1487 1483 1479 1477 1476 1474 1475 1476 1476
1555 1562 1539 1536 1539 1543 1541 1539 1573 1574 1582 1569 1533 1537 1520 1505 1508 1509 1507 1509 1509 1507 1508 1508 1508 1506 1504 1502 1501 1500 1499 1497 1494 1490 1485 1481 1477 1474 1470 1467 1466 1465 1465 1466
1564 1552 1538 1538 1537 1541 1544 1555 1542 1559 1579 1579 1552 1527 1511 1506 1509 1509 1510 1510 1509 1508 1507 1508 1506 1503 1501 1499 1497 1496 1494 1491 1486 1482 1478 1473 1469 1466 1462 1461 1460 1460 1461 1461
1557 1564 1545 1542 1539 1536 1541 1541 1563 1571 1579 1574 1548 1539 1534 1517 1512 1510 1507 1505 1504 1506 1505 1505 1505 1503 1499 1496 1495 1492 1489 1484 1478 1473 1470 1466 1462 1461 1460 1459 1458 1458 1458 1458
1558 1564 1561 1548 1543 1548 1549 1554 1550 1551 1564 1570 1569 1549 1513 1513 1513 1511 1504 1503 1504 1507 1504 1503 1502 1500 1498 1495 1491 1488 1482 1476 1472 1468 1464 1460 1458 1457 1456 1456 1455 1455 1457 1456
1562 1565 1578 1555 1541 1541 1542 1549 1547 1568 1568 1565 1568 1540 1512 1512 1508 1505 1505 1508 1508 1507 1504 1501 1499 1497 1493 1489 1485 1480 1476 1471 1466 1462 1457 1454 1453 1451 1451 1452 1452 1451 1453 1454
1562 1574 1585 1565 1551 1546 1551 1547 1550 1555 1560 1554 1562 1538 1513 1510 1506 1506 1505 1506 1504 1503 1501 1499 1496 1492 1489 1485 1481 1476 1471 1466 1462 1457 1452 1450 1448 1448 1448 1448 1450 1450 1449 1451
1560 1566 1574 1582 1569 1563 1564 1553 1547 1552 1572 1546 1545 1524 1516 1510 1504 1503 1504 1502 1501 1499 1497 1494 1492 1490 1483 1479 1475 1470 1466 1463 1459 1453 1448 1446 1445 1444 1445 1446 1446 1447 1448 1447
1559 1570 1565 1561 1559 1558 1556 1550 1541 1544 1542 1546 1524 1524 1511 1508 1506 1506 1504 1501 1498 1497 1494 1491 1487 1482 1478 1475 1471 1466 1462 1457 1454 1451 1447 1444 1443 1442 1442 1443 1443 1444 1444 1443
1558 1568 1561 1563 1554 1556 1556 1542 1536 1536 1533 1526 1519 1516 1506 1506 1505 1502 1502 1498 1497 1494 1491 1488 1483 1478 1474 1469 1465 1462 1457 1454 1452 1448 1444 1441 1441 1440 1438 1439 1441 1441 1440 1438
1560 1566 1569 1555 1557 1560 1565 1533 1532 1528 1524 1521 1525 1517 1511 1508 1507 1504 1501 1498 1495 1492 1488 1482 1478 1473 1468 1465 1461 1456 1450 1446 1442 1440 1439 1438 1436 1436 1435 1435 1438 1437 1435 1432
1558 1564 1570 1561 1568 1556 1535 1523 1520 1521 1517 1515 1513 1511 1510 1508 1504 1501 1496 1495 1491 1487 1482 1477 1473 1469 1465 1461 1456 1451 1445 1442 1439 1437 1436 1435 1434 1435 1436 1436 1435 1432 1429 1426
1544 1560 1562 1558 1557 1542 1531 1520 1519 1519 1515 1513 1510 1506 1506 1505 1500 1495 1491 1491 1486 1480 1477 1473 1468 1464 1459 1455 1451 1447 1444 1441 1439 1437 1437 1435 1435 1434 1433 1431 1429 1427 1423 1419
1549 1552 1561 1567 1564 1545 1524 1515 1514 1510 1512 1508 1510 1508 1507 1501 1498 1488 1486 1483 1477 1475 1471 1467 1462 1458 1453 1450 1448 1446 1443 1440 1439 1438 1437 1436 1434 1432 1429 1426 1424 1421 1417 1413
1561 1564 1564 1573 1554 1537 1514 1512 1511 1525 1515 1505 1505 1503 1500 1497 1493 1486 1481 1473 1471 1468 1464 1461 1458 1453 1448 1446 1445 1444 1442 1440 1439 1438 1436 1434 1431 1428 1425 1422 1419 1415 1411 1407
1556 1561 1557 1555 1544 1540 1508 1510 1521 1513 1504 1501 1497 1494 1493 1487 1483 1480 1476 1470 1466 1462 1458 1456 1452 1449 1446 1444 1444 1441 1440 1440 1439 1436 1433 1430 1427 1424 1420 1417 1414 1410 1406 1402
1549 1544 1545 1540 1526 1505 1506 1510 1506 1505 1500 1495 1491 1487 1483 1484 1480 1476 1473 1467 1464 1460 1455 1450 1448 1446 1444 1444 1443 1441 1439 1438 1435 1433 1429 1426 1423 1419 1416 1412 1409 1405 1401 1397
1534 1532 1531 1527 1508 1501 1505 1501 1500 1496 1492 1489 1485 1485 1483 1479 1477 1472 1469 1464 1462 1459 1452 1448 1446 1444 1443 1442 1441 1439 1437 1434 1432 1429 1426 1422 1419 1416 1413 1409 1405 1401 1397 1393
1529 1528 1520 1513 1507 1503 1498 1497 1494 1490 1487 1483 1479 1477 1476 1475 1472 1469 1462 1459 1458 1456 1451 1448 1444 1443 1442 1440 1439 1437 1434 1432 1429 1426 1422 1419 1415 1412 1409 1405 1402 1399 1396 1391
1519 1514 1518 1505 1500 1500 1491 1491 1489 1485 1483 1481 1478 1473 1471 1470 1469 1464 1458 1456 1456 1453 1449 1444 1442 1442 1441 1439 1437 1435 1432 1429 1426 1423 1419 1415 1412 1409 1405 1401 1398 1397 1393 1389